����������;��������(kWh)
2015-09-21 00:00;72,75
2015-09-21 00:15;72,4
2015-09-21 00:30;73,6
2015-09-21 00:45;73,65
2015-09-21 01:00;73,5
2015-09-21 01:15;71,1
2015-09-21 01:30;71,7
2015-09-21 01:45;71,7
2015-09-21 02:00;70
2015-09-21 02:15;70,3
2015-09-21 02:30;70,1
2015-09-21 02:45;70,95
2015-09-21 03:00;69
2015-09-21 03:15;70,8
2015-09-21 03:30;71,5
2015-09-21 03:45;70,8
2015-09-21 04:00;78,2
2015-09-21 04:15;74,55
2015-09-21 04:30;71,5
2015-09-21 04:45;70,15
2015-09-21 05:00;72,35
2015-09-21 05:15;69,5
2015-09-21 05:30;71,5
2015-09-21 05:45;71,05
2015-09-21 06:00;72,65
2015-09-21 06:15;71,9
2015-09-21 06:30;78,25
2015-09-21 06:45;78
2015-09-21 07:00;78,95
2015-09-21 07:15;80,2
2015-09-21 07:30;78,1
2015-09-21 07:45;111,25
2015-09-21 08:00;174
2015-09-21 08:15;134,8
2015-09-21 08:30;119,8
2015-09-21 08:45;114,55
2015-09-21 09:00;117,75
2015-09-21 09:15;132
2015-09-21 09:30;142,65
2015-09-21 09:45;136,85
2015-09-21 10:00;155,85
2015-09-21 10:15;164,4
2015-09-21 10:30;159,7
2015-09-21 10:45;159,7
2015-09-21 11:00;150,85
2015-09-21 11:15;141,35
2015-09-21 11:30;147,15
2015-09-21 11:45;147,75
2015-09-21 12:00;148,9
2015-09-21 12:15;160,1
2015-09-21 12:30;160,15
2015-09-21 12:45;159
2015-09-21 13:00;159,8
2015-09-21 13:15;149,95
2015-09-21 13:30;148,15
2015-09-21 13:45;147,2
2015-09-21 14:00;144,55
2015-09-21 14:15;144,8
2015-09-21 14:30;160,5
2015-09-21 14:45;158,3
2015-09-21 15:00;160,8
2015-09-21 15:15;154
2015-09-21 15:30;152,55
2015-09-21 15:45;132,7
2015-09-21 16:00;126,35
2015-09-21 16:15;123,95
2015-09-21 16:30;123,45
2015-09-21 16:45;123,7
2015-09-21 17:00;121,4
2015-09-21 17:15;117,65
2015-09-21 17:30;119,4
2015-09-21 17:45;128,85
2015-09-21 18:00;130,45
2015-09-21 18:15;124,55
2015-09-21 18:30;112,95
2015-09-21 18:45;117,1
2015-09-21 19:00;111,6
2015-09-21 19:15;108,45
2015-09-21 19:30;107,9
2015-09-21 19:45;108,5
2015-09-21 20:00;104,15
2015-09-21 20:15;102,1
2015-09-21 20:30;105,5
2015-09-21 20:45;97
2015-09-21 21:00;98,1
2015-09-21 21:15;90,65
2015-09-21 21:30;90,8
2015-09-21 21:45;89,2
2015-09-21 22:00;84,6
2015-09-21 22:15;80,2
2015-09-21 22:30;78,1
2015-09-21 22:45;77,85
2015-09-21 23:00;76,55
2015-09-21 23:15;75
2015-09-21 23:30;72,4
2015-09-21 23:45;73,35
2015-09-22 00:00;72,6
2015-09-22 00:15;77,35
2015-09-22 00:30;79,75
2015-09-22 00:45;77,65
2015-09-22 01:00;73,15
2015-09-22 01:15;71,05
2015-09-22 01:30;72,25
2015-09-22 01:45;70,85
2015-09-22 02:00;72,5
2015-09-22 02:15;71,9
2015-09-22 02:30;70,8
2015-09-22 02:45;69,3
2015-09-22 03:00;71
2015-09-22 03:15;70,7
2015-09-22 03:30;69,7
2015-09-22 03:45;70,1
2015-09-22 04:00;69,85
2015-09-22 04:15;71,15
2015-09-22 04:30;68,1
2015-09-22 04:45;68,9
2015-09-22 05:00;68,6
2015-09-22 05:15;69,8
2015-09-22 05:30;68,3
2015-09-22 05:45;67,4
2015-09-22 06:00;74,6
2015-09-22 06:15;73,2
2015-09-22 06:30;76,85
2015-09-22 06:45;77,3
2015-09-22 07:00;76,65
2015-09-22 07:15;76,1
2015-09-22 07:30;75,7
2015-09-22 07:45;105,95
2015-09-22 08:00;152,3
2015-09-22 08:15;100,25
2015-09-22 08:30;109,45
2015-09-22 08:45;111,75
2015-09-22 09:00;105,95
2015-09-22 09:15;119,7
2015-09-22 09:30;128,45
2015-09-22 09:45;120,85
2015-09-22 10:00;133,6
2015-09-22 10:15;140,45
2015-09-22 10:30;148,9
2015-09-22 10:45;174,15
2015-09-22 11:00;190
2015-09-22 11:15;160,5
2015-09-22 11:30;169,95
2015-09-22 11:45;175,6
2015-09-22 12:00;184
2015-09-22 12:15;188,3
2015-09-22 12:30;185,85
2015-09-22 12:45;171,35
2015-09-22 13:00;169,3
2015-09-22 13:15;167,3
2015-09-22 13:30;167,8
2015-09-22 13:45;170,4
2015-09-22 14:00;173,3
2015-09-22 14:15;175,25
2015-09-22 14:30;179,15
2015-09-22 14:45;177,3
2015-09-22 15:00;175,1
2015-09-22 15:15;159,8
2015-09-22 15:30;143,1
2015-09-22 15:45;125,9
2015-09-22 16:00;120,9
2015-09-22 16:15;119,3
2015-09-22 16:30;115,05
2015-09-22 16:45;116,8
2015-09-22 17:00;111,2
2015-09-22 17:15;109,6
2015-09-22 17:30;106,65
2015-09-22 17:45;100,9
2015-09-22 18:00;98,7
2015-09-22 18:15;97,85
2015-09-22 18:30;94,9
2015-09-22 18:45;97,5
2015-09-22 19:00;96,45
2015-09-22 19:15;93,25
2015-09-22 19:30;94,95
2015-09-22 19:45;93,45
2015-09-22 20:00;92,5
2015-09-22 20:15;92,75
2015-09-22 20:30;91
2015-09-22 20:45;87,35
2015-09-22 21:00;86,6
2015-09-22 21:15;87,15
2015-09-22 21:30;84,3
2015-09-22 21:45;85,45
2015-09-22 22:00;79,45
2015-09-22 22:15;77,5
2015-09-22 22:30;82,1
2015-09-22 22:45;82,1
2015-09-22 23:00;80,8
2015-09-22 23:15;73,65
2015-09-22 23:30;73,35
2015-09-22 23:45;73,8
2015-09-23 00:00;74,3
2015-09-23 00:15;71,4
2015-09-23 00:30;70,45
2015-09-23 00:45;71,4
2015-09-23 01:00;70,05
2015-09-23 01:15;71,15
2015-09-23 01:30;69,7
2015-09-23 01:45;71,2
2015-09-23 02:00;71
2015-09-23 02:15;70,5
2015-09-23 02:30;71,05
2015-09-23 02:45;69,85
2015-09-23 03:00;69,5
2015-09-23 03:15;69,55
2015-09-23 03:30;70,7
2015-09-23 03:45;69,65
2015-09-23 04:00;68,85
2015-09-23 04:15;68,55
2015-09-23 04:30;69
2015-09-23 04:45;69,3
2015-09-23 05:00;67,6
2015-09-23 05:15;68,45
2015-09-23 05:30;67,65
2015-09-23 05:45;71
2015-09-23 06:00;69,65
2015-09-23 06:15;74,35
2015-09-23 06:30;78
2015-09-23 06:45;74,9
2015-09-23 07:00;76,05
2015-09-23 07:15;73,6
2015-09-23 07:30;74,5
2015-09-23 07:45;78,5
2015-09-23 08:00;129,7
2015-09-23 08:15;87,65
2015-09-23 08:30;98,65
2015-09-23 08:45;100,8
2015-09-23 09:00;103,9
2015-09-23 09:15;117,1
2015-09-23 09:30;128,2
2015-09-23 09:45;126,55
2015-09-23 10:00;137,7
2015-09-23 10:15;160,8
2015-09-23 10:30;163,25
2015-09-23 10:45;201,1
2015-09-23 11:00;215,6
2015-09-23 11:15;195,2
2015-09-23 11:30;202,3
2015-09-23 11:45;199,55
2015-09-23 12:00;195,05
2015-09-23 12:15;209,7
2015-09-23 12:30;201,15
2015-09-23 12:45;206,25
2015-09-23 13:00;209,8
2015-09-23 13:15;202
2015-09-23 13:30;204,3
2015-09-23 13:45;206,5
2015-09-23 14:00;199,85
2015-09-23 14:15;196,75
2015-09-23 14:30;183,3
2015-09-23 14:45;180,85
2015-09-23 15:00;178,65
2015-09-23 15:15;162,8
2015-09-23 15:30;152,95
2015-09-23 15:45;145,65
2015-09-23 16:00;143,4
2015-09-23 16:15;139
2015-09-23 16:30;132,5
2015-09-23 16:45;132,7
2015-09-23 17:00;132,4
2015-09-23 17:15;129,35
2015-09-23 17:30;125,1
2015-09-23 17:45;119,05
2015-09-23 18:00;108,9
2015-09-23 18:15;108,6
2015-09-23 18:30;105,8
2015-09-23 18:45;109,75
2015-09-23 19:00;109,2
2015-09-23 19:15;108,95
2015-09-23 19:30;104,4
2015-09-23 19:45;111,3
2015-09-23 20:00;114,8
2015-09-23 20:15;109,4
2015-09-23 20:30;102,55
2015-09-23 20:45;96,4
2015-09-23 21:00;98,35
2015-09-23 21:15;96,55
2015-09-23 21:30;92,1
2015-09-23 21:45;88,35
2015-09-23 22:00;84,55
2015-09-23 22:15;83
2015-09-23 22:30;83,35
2015-09-23 22:45;83,65
2015-09-23 23:00;82
2015-09-23 23:15;80,2
2015-09-23 23:30;78,25
2015-09-23 23:45;75,35
2015-09-24 00:00;74
2015-09-24 00:15;75
2015-09-24 00:30;72,35
2015-09-24 00:45;72,85
2015-09-24 01:00;71,55
2015-09-24 01:15;72,15
2015-09-24 01:30;72,6
2015-09-24 01:45;70,65
2015-09-24 02:00;71,1
2015-09-24 02:15;71,8
2015-09-24 02:30;72,65
2015-09-24 02:45;69,9
2015-09-24 03:00;70,35
2015-09-24 03:15;70
2015-09-24 03:30;69,95
2015-09-24 03:45;70,25
2015-09-24 04:00;69,7
2015-09-24 04:15;70,8
2015-09-24 04:30;69,6
2015-09-24 04:45;69,8
2015-09-24 05:00;69,1
2015-09-24 05:15;69,75
2015-09-24 05:30;69,85
2015-09-24 05:45;67,1
2015-09-24 06:00;72,4
2015-09-24 06:15;69,7
2015-09-24 06:30;76,6
2015-09-24 06:45;78,05
2015-09-24 07:00;77,6
2015-09-24 07:15;76,55
2015-09-24 07:30;74,6
2015-09-24 07:45;76,1
2015-09-24 08:00;133,2
2015-09-24 08:15;90,15
2015-09-24 08:30;101,8
2015-09-24 08:45;139,6
2015-09-24 09:00;136,45
2015-09-24 09:15;132,95
2015-09-24 09:30;128,95
2015-09-24 09:45;133,4
2015-09-24 10:00;143,35
2015-09-24 10:15;150,65
2015-09-24 10:30;143,45
2015-09-24 10:45;187,25
2015-09-24 11:00;198,95
2015-09-24 11:15;177,55
2015-09-24 11:30;221,9
2015-09-24 11:45;215,8
2015-09-24 12:00;212,1
2015-09-24 12:15;218,9
2015-09-24 12:30;211,8
2015-09-24 12:45;208,7
2015-09-24 13:00;211,7
2015-09-24 13:15;211,1
2015-09-24 13:30;217
2015-09-24 13:45;215,8
2015-09-24 14:00;215,8
2015-09-24 14:15;216,2
2015-09-24 14:30;202,5
2015-09-24 14:45;193,4
2015-09-24 15:00;194,25
2015-09-24 15:15;187,05
2015-09-24 15:30;183,35
2015-09-24 15:45;164,5
2015-09-24 16:00;152,85
2015-09-24 16:15;151,8
2015-09-24 16:30;153,35
2015-09-24 16:45;149,25
2015-09-24 17:00;147
2015-09-24 17:15;139,35
2015-09-24 17:30;134,55
2015-09-24 17:45;134,3
2015-09-24 18:00;133,75
2015-09-24 18:15;132,8
2015-09-24 18:30;131,55
2015-09-24 18:45;127,25
2015-09-24 19:00;120,9
2015-09-24 19:15;120,55
2015-09-24 19:30;108,65
2015-09-24 19:45;114
2015-09-24 20:00;108,1
2015-09-24 20:15;104,85
2015-09-24 20:30;104,95
2015-09-24 20:45;99,95
2015-09-24 21:00;99,1
2015-09-24 21:15;102,15
2015-09-24 21:30;102,55
2015-09-24 21:45;99,65
2015-09-24 22:00;85,55
2015-09-24 22:15;84,8
2015-09-24 22:30;83,35
2015-09-24 22:45;82,9
2015-09-24 23:00;80,4
2015-09-24 23:15;80,05
2015-09-24 23:30;80,8
2015-09-24 23:45;77,25
2015-09-25 00:00;76,6
2015-09-25 00:15;77,5
2015-09-25 00:30;75,65
2015-09-25 00:45;75,3
2015-09-25 01:00;75,1
2015-09-25 01:15;75,35
2015-09-25 01:30;74,75
2015-09-25 01:45;76,05
2015-09-25 02:00;74,25
2015-09-25 02:15;75,2
2015-09-25 02:30;73,15
2015-09-25 02:45;73,15
2015-09-25 03:00;72,8
2015-09-25 03:15;74,05
2015-09-25 03:30;77,65
2015-09-25 03:45;79,85
2015-09-25 04:00;81,15
2015-09-25 04:15;74,4
2015-09-25 04:30;73,5
2015-09-25 04:45;71,8
2015-09-25 05:00;72,8
2015-09-25 05:15;72,05
2015-09-25 05:30;71,8
2015-09-25 05:45;71,2
2015-09-25 06:00;75,15
2015-09-25 06:15;74,25
2015-09-25 06:30;79,65
2015-09-25 06:45;79,95
2015-09-25 07:00;81,05
2015-09-25 07:15;77,45
2015-09-25 07:30;79,4
2015-09-25 07:45;117,4
2015-09-25 08:00;124,55
2015-09-25 08:15;117,75
2015-09-25 08:30;130,75
2015-09-25 08:45;154,2
2015-09-25 09:00;191,7
2015-09-25 09:15;189,15
2015-09-25 09:30;172,7
2015-09-25 09:45;157,6
2015-09-25 10:00;166,3
2015-09-25 10:15;179,8
2015-09-25 10:30;186,75
2015-09-25 10:45;194,15
2015-09-25 11:00;192,55
2015-09-25 11:15;198,4
2015-09-25 11:30;205,3
2015-09-25 11:45;207,5
2015-09-25 12:00;213,45
2015-09-25 12:15;221,55
2015-09-25 12:30;220,8
2015-09-25 12:45;221,7
2015-09-25 13:00;228,7
2015-09-25 13:15;224,8
2015-09-25 13:30;225,25
2015-09-25 13:45;230,65
2015-09-25 14:00;225,3
2015-09-25 14:15;224,4
2015-09-25 14:30;220,7
2015-09-25 14:45;221,85
2015-09-25 15:00;220,9
2015-09-25 15:15;209,9
2015-09-25 15:30;180,45
2015-09-25 15:45;173,6
2015-09-25 16:00;170,1
2015-09-25 16:15;163,25
2015-09-25 16:30;157,45
2015-09-25 16:45;154,8
2015-09-25 17:00;154,05
2015-09-25 17:15;146,3
2015-09-25 17:30;141,6
2015-09-25 17:45;144,8
2015-09-25 18:00;144,4
2015-09-25 18:15;137,75
2015-09-25 18:30;138,45
2015-09-25 18:45;136,65
2015-09-25 19:00;136,5
2015-09-25 19:15;137,35
2015-09-25 19:30;142,85
2015-09-25 19:45;144,15
2015-09-25 20:00;133,9
2015-09-25 20:15;127,15
2015-09-25 20:30;117,7
2015-09-25 20:45;101,3
2015-09-25 21:00;95,85
2015-09-25 21:15;90,25
2015-09-25 21:30;92,45
2015-09-25 21:45;92,75
2015-09-25 22:00;85
2015-09-25 22:15;83,6
2015-09-25 22:30;81,45
2015-09-25 22:45;80,65
2015-09-25 23:00;77,95
2015-09-25 23:15;75,95
2015-09-25 23:30;72,45
2015-09-25 23:45;71,2
2015-09-26 00:00;72,4
2015-09-26 00:15;71,55
2015-09-26 00:30;73,8
2015-09-26 00:45;78,6
2015-09-26 01:00;77,85
2015-09-26 01:15;80,35
2015-09-26 01:30;72,5
2015-09-26 01:45;71,6
2015-09-26 02:00;72,4
2015-09-26 02:15;71
2015-09-26 02:30;70,9
2015-09-26 02:45;69,6
2015-09-26 03:00;70,3
2015-09-26 03:15;71,35
2015-09-26 03:30;72,05
2015-09-26 03:45;70,35
2015-09-26 04:00;71,2
2015-09-26 04:15;70,6
2015-09-26 04:30;69,95
2015-09-26 04:45;70,5
2015-09-26 05:00;69,7
2015-09-26 05:15;70,4
2015-09-26 05:30;71,6
2015-09-26 05:45;72,15
2015-09-26 06:00;72,55
2015-09-26 06:15;75,2
2015-09-26 06:30;72,55
2015-09-26 06:45;73,35
2015-09-26 07:00;72,35
2015-09-26 07:15;72,55
2015-09-26 07:30;69,65
2015-09-26 07:45;95,1
2015-09-26 08:00;107,9
2015-09-26 08:15;96,6
2015-09-26 08:30;94,45
2015-09-26 08:45;97,95
2015-09-26 09:00;100,75
2015-09-26 09:15;95,6
2015-09-26 09:30;95,4
2015-09-26 09:45;97,25
2015-09-26 10:00;101,2
2015-09-26 10:15;100
2015-09-26 10:30;98,65
2015-09-26 10:45;119,45
2015-09-26 11:00;158,95
2015-09-26 11:15;133,45
2015-09-26 11:30;120,3
2015-09-26 11:45;117,4
2015-09-26 12:00;117,15
2015-09-26 12:15;99,65
2015-09-26 12:30;102,05
2015-09-26 12:45;105,2
2015-09-26 13:00;105,05
2015-09-26 13:15;99,85
2015-09-26 13:30;97,9
2015-09-26 13:45;95,65
2015-09-26 14:00;100,75
2015-09-26 14:15;103,35
2015-09-26 14:30;96,65
2015-09-26 14:45;92,95
2015-09-26 15:00;98,5
2015-09-26 15:15;95,7
2015-09-26 15:30;99,75
2015-09-26 15:45;96,8
2015-09-26 16:00;101,65
2015-09-26 16:15;97,45
2015-09-26 16:30;96
2015-09-26 16:45;99,8
2015-09-26 17:00;97,3
2015-09-26 17:15;94,1
2015-09-26 17:30;91,5
2015-09-26 17:45;93,8
2015-09-26 18:00;93,95
2015-09-26 18:15;93,25
2015-09-26 18:30;96,65
2015-09-26 18:45;94,15
2015-09-26 19:00;96,65
2015-09-26 19:15;97,15
2015-09-26 19:30;100,25
2015-09-26 19:45;95,65
2015-09-26 20:00;94,9
2015-09-26 20:15;93
2015-09-26 20:30;95,85
2015-09-26 20:45;90,85
2015-09-26 21:00;86,1
2015-09-26 21:15;82,85
2015-09-26 21:30;84,3
2015-09-26 21:45;81,2
2015-09-26 22:00;77,1
2015-09-26 22:15;75,7
2015-09-26 22:30;74,45
2015-09-26 22:45;74,35
2015-09-26 23:00;72,25
2015-09-26 23:15;71,5
2015-09-26 23:30;70,5
2015-09-26 23:45;69,5
2015-09-27 00:00;71,4
2015-09-27 00:15;71,75
2015-09-27 00:30;70,2
2015-09-27 00:45;71,15
2015-09-27 01:00;69,85
2015-09-27 01:15;70,6
2015-09-27 01:30;72,1
2015-09-27 01:45;70,25
2015-09-27 02:00;68,75
2015-09-27 02:15;67,75
2015-09-27 02:30;67,9
2015-09-27 02:45;68,7
2015-09-27 03:00;67,9
2015-09-27 03:15;68,05
2015-09-27 03:30;67,7
2015-09-27 03:45;67,75
2015-09-27 04:00;67,7
2015-09-27 04:15;66,8
2015-09-27 04:30;74,35
2015-09-27 04:45;74,5
2015-09-27 05:00;75,65
2015-09-27 05:15;68,65
2015-09-27 05:30;65,55
2015-09-27 05:45;65,15
2015-09-27 06:00;71
2015-09-27 06:15;67,4
2015-09-27 06:30;74,25
2015-09-27 06:45;75
2015-09-27 07:00;74,05
2015-09-27 07:15;73,65
2015-09-27 07:30;71,8
2015-09-27 07:45;71,3
2015-09-27 08:00;74,95
2015-09-27 08:15;73,6
2015-09-27 08:30;71
2015-09-27 08:45;70,95
2015-09-27 09:00;69,25
2015-09-27 09:15;66,8
2015-09-27 09:30;67,7
2015-09-27 09:45;69,1
2015-09-27 10:00;71,35
2015-09-27 10:15;70
2015-09-27 10:30;69,25
2015-09-27 10:45;72,7
2015-09-27 11:00;76,05
2015-09-27 11:15;72,7
2015-09-27 11:30;70,55
2015-09-27 11:45;72,75
2015-09-27 12:00;72,65
2015-09-27 12:15;71,65
2015-09-27 12:30;73,65
2015-09-27 12:45;75,05
2015-09-27 13:00;72,9
2015-09-27 13:15;73,75
2015-09-27 13:30;77,75
2015-09-27 13:45;75,3
2015-09-27 14:00;74,4
2015-09-27 14:15;76,1
2015-09-27 14:30;74,35
2015-09-27 14:45;73,5
2015-09-27 15:00;77,3
2015-09-27 15:15;73,45
2015-09-27 15:30;78
2015-09-27 15:45;75,15
2015-09-27 16:00;72,75
2015-09-27 16:15;74,9
2015-09-27 16:30;73,8
2015-09-27 16:45;75,05
2015-09-27 17:00;75
2015-09-27 17:15;72,35
2015-09-27 17:30;73,95
2015-09-27 17:45;72,95
2015-09-27 18:00;75,8
2015-09-27 18:15;75,4
2015-09-27 18:30;75,45
2015-09-27 18:45;77,65
2015-09-27 19:00;77,3
2015-09-27 19:15;77,5
2015-09-27 19:30;81,15
2015-09-27 19:45;86,85
2015-09-27 20:00;83,9
2015-09-27 20:15;85,4
2015-09-27 20:30;89,8
2015-09-27 20:45;88,3
2015-09-27 21:00;91,1
2015-09-27 21:15;82,8
2015-09-27 21:30;78,6
2015-09-27 21:45;76,3
2015-09-27 22:00;74,3
2015-09-27 22:15;74,1
2015-09-27 22:30;73,2
2015-09-27 22:45;73,6
2015-09-27 23:00;73
2015-09-27 23:15;72,35
2015-09-27 23:30;72
2015-09-27 23:45;70,4

